Temperature
21 21 21 21 21 21 20 20 20 20 20 20 19 19 19 19 18 18 18 18 18 18 18 18 18 18 18 18 18 17 17 17 17 17 17 17 17 18 18 18 18 18 18
21 21 21 21 21 21 20 20 20 20 20 20 19 19 19 19 18 18 18 18 18 18 18 18 18 18 18 18 17 17 17 17 17 17 17 17 17 18 18 18 18 18 18
21 21 21 21 21 21 20 20 20 20 20 20 19 19 19 19 18 18 18 18 18 18 18 18 18 18 18 18 18 18 18 17 17 17 17 17 17 17 17 17 17 17 17
22 22 22 21 21 21 21 20 20 20 20 19 19 19 19 19 19 18 18 18 18 18 18 18 18 18 18 18 18 17 17 17 17 17 17 17 17 17 17 17 17 17 17
22 22 22 22 21 21 21 20 20 20 20 19 19 19 19 19 18 18 18 18 18 18 18 18 18 18 18 18 17 17 17 17 17 17 17 17 17 17 17 17 17 17 17
22 22 22 22 21 21 21 20 20 20 20 19 19 19 19 19 18 18 18 18 18 18 18 17 17 17 17 17 17 17 17 17 17 17 17 17 17 17 17 17 17 17 17
22 22 22 22 21 21 21 20 20 20 19 19 19 19 18 18 18 18 18 18 18 17 17 17 17 17 17 17 17 17 17 17 17 17 17 17 17 17 17 17 17 16 16
22 22 22 22 22 21 21 20 20 20 19 19 19 18 18 18 18 18 17 17 17 17 17 17 17 17 17 17 17 17 17 17 17 17 17 17 17 17 17 16 16 16 16
22 22 22 22 21 21 21 20 20 20 19 19 19 18 18 18 18 17 17 17 17 17 17 17 16 16 17 16 16 16 16 16 16 16 16 16 16 16 16 16 16 16 16
21 21 21 21 21 21 21 20 20 20 19 19 18 18 18 17 17 17 17 17 17 16 16 16 16 16 16 16 16 16 16 16 16 16 16 16 16 16 16 16 16 16 16
21 22 22 21 21 21 21 20 20 19 19 19 18 18 18 17 17 17 16 16 16 16 16 16 16 16 16 16 16 16 16 16 16 16 16 16 16 16 16 16 16 16 15
22 22 21 21 21 21 20 20 20 19 19 19 18 18 17 17 17 16 16 16 16 16 16 16 16 16 16 16 15 15 15 16 16 15 15 15 15 15 15 15 15 15 15
21 21 21 21 21 21 20 20 19 19 19 18 18 17 17 17 17 16 16 16 16 16 16 16 16 16 15 15 15 15 15 15 15 15 15 15 15 15 15 15 15 15 15
21 21 21 20 20 20 20 20 19 19 18 18 17 17 17 17 16 16 16 16 16 16 15 15 15 15 15 15 15 15 15 15 14 14 14 14 14 14 14 14 14 14 14
20 20 20 20 20 20 19 19 19 18 18 18 17 17 17 16 16 16 16 16 15 15 15 15 15 15 15 14 14 14 14 14 14 14 14 14 14 14 14 14 14 14 14
20 20 20 20 19 19 19 19 19 18 18 17 17 17 16 16 16 16 16 15 15 15 15 15 15 15 14 14 14 14 14 14 14 14 14 14 14 13 13 13 13 13 13
20 20 20 20 19 19 19 19 18 18 18 17 17 17 16 16 16 16 15 15 15 15 15 15 14 14 14 14 14 14 14 13 13 13 13 13 13 13 13 13 13 13 13
20 20 20 19 19 19 19 18 18 18 17 17 17 16 16 16 16 16 15 15 15 15 15 14 14 14 14 14 14 13 13 13 13 13 13 13 13 13 12 12 12 12 12
20 20 19 19 19 18 18 18 17 17 17 17 17 16 16 16 15 15 15 15 14 14 14 14 14 13 13 13 13 13 13 13 13 12 12 12 12 12 12 12 12 12 12
20 19 19 19 18 18 18 17 17 17 17 17 16 16 16 15 15 15 15 14 14 14 14 13 13 13 13 13 13 12 12 12 12 12 12 12 12 12 11 11 11 11 11
19 19 19 18 18 18 17 17 17 17 16 16 16 16 15 15 15 14 14 14 13 13 13 13 13 13 12 12 12 12 12 12 12 12 12 12 11 11 11 11 11 11 11
19 18 18 18 17 17 17 16 16 16 16 16 15 15 15 14 14 14 13 13 13 13 13 13 12 12 12 12 12 12 12 12 11 11 11 11 11 11 11 11 11 11 11
18 18 17 17 17 16 16 16 16 15 15 15 14 14 14 14 13 13 13 13 12 12 12 12 12 12 12 12 11 11 11 11 11 11 11 11 11 11 11 11 11 11 11
17 16 16 16 16 16 15 15 15 14 14 14 14 14 13 13 13 13 13 12 12 12 12 12 11 11 11 11 11 11 11 11 11 11 11 11 10 10 10 11 11 10 10
16 16 16 16 16 16 15 15 14 14 14 14 14 13 13 13 12 12 12 12 12 12 11 11 11 11 11 11 11 10 10 10 10 10 10 10 10 10 10 10 10 10 10
15 15 15 15 15 15 15 14 14 13 13 13 13 13 12 12 12 12 12 11 11 11 11 11 10 10 10 10 10 10 10 10 10 10 10 10 10 10 10 10 10 10 10
Wind_Speed
3 3 3 3 3 3 3 3 3 3 3 2 2 2 2 2 3 3 4 3 3 4 4 4 3 3 3 3 3 3 3 2 2 2 2 2 2 2 1 1 1 1 1
3 3 3 3 3 3 3 3 3 3 2 2 2 2 2 2 2 2 3 4 4 4 3 3 3 3 3 3 3 2 2 1 1 2 2 2 2 2 2 1 1 0 1
7 5 4 4 4 4 4 4 3 3 3 3 3 3 3 3 3 3 3 3 3 3 3 3 3 3 3 2 2 2 2 1 1 1 2 1 1 1 2 1 1 0 0
7 6 6 5 5 4 4 3 3 3 3 4 4 4 3 2 1 1 1 3 4 3 3 3 3 3 2 2 1 1 1 2 1 0 0 1 2 1 0 1 1 1 0
8 8 7 6 5 5 4 4 3 3 3 4 4 4 3 2 1 2 3 3 3 3 3 3 3 2 2 1 1 1 1 1 1 1 0 0 0 1 2 1 1 1 1
8 7 5 5 4 5 5 4 4 3 3 4 4 4 4 3 3 2 2 3 2 3 3 3 2 2 2 1 1 1 1 1 1 1 1 1 1 1 1 1 1 1 1
8 8 7 6 6 6 5 5 5 3 3 3 3 3 4 4 3 2 1 1 1 2 2 2 2 2 1 1 1 1 1 1 1 1 1 1 1 1 1 2 1 1 1
7 8 8 7 7 6 5 5 5 4 3 4 3 3 3 2 2 1 1 1 0 0 1 2 2 2 2 1 1 1 1 1 1 0 0 0 0 0 1 2 2 1 1
8 8 8 7 6 6 6 6 6 4 3 3 3 3 2 2 2 2 1 1 0 1 2 2 2 2 2 2 2 2 1 1 1 1 0 0 0 0 0 1 2 3 2
7 8 8 8 7 6 5 5 6 5 3 3 3 3 2 2 2 2 1 1 1 1 2 2 2 1 2 2 2 2 1 2 1 1 1 1 1 1 0 1 0 1 3
7 7 7 7 7 6 6 5 5 4 3 3 3 3 2 2 2 2 1 1 1 1 1 1 1 1 1 2 2 2 2 2 1 1 1 1 1 1 1 1 1 1 1
6 6 6 7 7 6 5 5 5 4 4 3 3 3 2 2 2 1 1 1 1 1 1 1 1 1 1 1 1 1 1 1 1 1 1 1 1 1 1 1 1 1 1
5 5 6 6 6 6 6 5 5 5 4 4 3 3 2 2 1 1 1 1 1 1 1 1 1 1 1 1 1 0 0 0 0 0 0 0 0 1 0 0 1 1 1
5 5 6 5 6 6 5 5 5 5 5 4 3 3 3 2 2 1 1 1 1 1 0 0 0 1 1 1 1 0 0 1 1 1 1 1 1 1 1 1 1 1 1
5 5 5 5 5 5 5 5 5 4 4 4 4 3 3 2 2 1 1 1 1 1 1 0 1 1 1 1 0 0 0 1 1 1 1 1 2 2 2 1 2 2 2
6 6 5 5 6 6 6 5 4 4 4 4 4 3 2 2 2 2 2 1 1 0 0 0 0 1 1 2 1 0 0 1 1 2 2 2 2 2 1 1 2 3 3
6 6 6 6 6 6 6 6 5 4 5 4 4 3 3 2 2 1 1 1 1 1 0 1 1 1 2 3 3 2 0 1 2 2 2 2 2 1 1 1 1 1 3
5 5 5 5 4 5 5 5 4 4 4 4 3 2 3 2 2 1 1 1 1 1 1 1 1 1 2 3 3 2 1 1 2 2 2 2 2 1 0 1 1 1 2
5 5 5 5 4 4 5 5 4 4 3 3 2 2 2 2 2 2 2 1 1 1 1 1 1 1 2 3 2 2 1 1 2 2 2 1 1 2 1 1 1 2 3
3 4 4 5 5 4 5 6 5 4 3 3 2 2 2 2 2 2 2 1 1 1 1 1 1 1 2 3 2 1 0 1 2 2 2 3 2 2 2 2 3 3 4
3 4 5 5 4 5 6 6 4 4 3 2 2 2 2 2 2 1 1 1 1 1 0 1 2 2 2 3 3 2 1 2 2 3 3 3 4 3 3 3 4 5 4
3 4 4 3 3 4 6 5 3 2 2 3 3 2 1 1 2 2 1 1 1 1 1 1 2 2 3 3 3 3 2 2 2 3 3 4 4 4 4 4 4 5 3
2 3 5 4 3 3 5 5 2 2 3 3 2 2 2 2 2 2 1 1 1 0 1 1 2 3 3 3 4 4 3 3 2 3 5 5 5 4 3 4 4 3 2
2 3 4 4 3 2 3 3 2 3 3 3 2 2 2 1 1 1 1 1 1 1 1 1 2 3 3 3 3 3 3 3 2 3 4 4 4 3 3 3 3 2 3
2 3 4 3 3 3 3 3 3 3 3 2 2 1 1 1 0 0 1 2 2 3 2 2 2 2 3 4 4 2 2 2 2 2 2 2 2 2 2 2 3 2 2
2 2 3 3 2 3 3 2 3 3 4 3 2 1 1 1 1 0 1 2 1 1 0 1 2 2 3 4 3 2 2 2 1 1 1 2 3 3 4 4 4 3 3
Wind_Direction
189 161 156 143 122 110 113 119 115 103 104 101 97 87 66 47 45 44 50 64 74 86 93 93 86 85 91 92 91 93 81 67 81 86 53 34 44 57 55 87 101 115 142
171 175 172 157 152 148 145 141 139 130 126 119 115 114 107 78 67 46 46 53 70 84 99 102 104 102 101 90 88 93 95 62 64 102 85 26 14 16 27 68 120 112 119
189 189 183 179 163 163 164 162 156 142 124 112 98 86 65 52 48 42 33 32 59 70 78 86 93 101 114 119 107 108 123 126 48 79 135 134 214 328 358 5 20 47 84
192 190 185 181 178 175 155 146 146 139 128 123 122 123 116 105 55 51 40 34 46 57 74 84 89 94 105 112 121 115 138 143 152 14 81 190 180 173 322 350 8 34 34
194 193 189 185 171 155 144 143 136 127 126 126 133 127 114 108 80 66 59 42 34 43 57 77 90 86 89 105 104 100 119 149 172 200 195 144 128 153 177 250 324 0 328
193 188 177 158 149 141 141 142 139 131 124 125 129 130 128 118 97 71 61 42 27 26 33 58 65 68 77 75 99 112 120 135 174 205 197 187 197 192 177 207 252 285 306
182 176 172 168 161 154 154 151 150 148 140 137 139 141 141 137 138 137 118 83 40 23 13 38 51 52 54 52 59 100 115 142 163 194 216 209 238 211 181 176 213 244 297
178 179 179 173 167 160 155 157 160 159 156 152 149 140 141 140 139 136 140 149 137 14 17 49 55 50 51 49 56 55 37 82 105 99 152 159 278 192 188 182 172 201 268
175 175 172 167 167 165 167 167 157 151 157 157 143 133 138 143 140 128 117 111 66 55 61 60 51 37 40 40 50 50 32 61 82 89 104 98 350 96 181 176 185 180 206
171 169 168 168 171 172 164 157 153 153 145 143 151 149 146 154 151 131 115 95 54 50 73 71 67 54 41 51 56 43 39 69 62 98 87 44 14 39 77 157 173 180 188
175 173 167 167 165 155 153 151 148 140 139 146 133 112 100 100 110 113 125 135 122 118 108 103 83 56 43 46 53 34 39 57 50 54 85 48 49 74 64 90 108 124 157
162 162 160 158 160 160 158 160 160 154 154 147 129 119 108 95 92 119 173 152 129 108 117 94 74 44 31 37 57 31 31 50 67 57 71 9 42 57 77 105 133 154 165
146 150 152 160 163 164 164 160 158 158 152 143 136 132 126 123 146 202 164 134 135 112 78 74 51 1 353 355 337 311 331 336 300 311 118 291 76 42 66 145 180 178 155
157 156 161 165 163 159 158 156 159 161 156 143 153 162 173 179 185 170 133 122 137 143 99 28 332 324 332 322 321 333 336 327 317 303 269 266 230 229 223 207 200 172 149
166 167 166 164 159 154 156 159 163 165 159 155 174 191 188 178 164 148 145 128 133 170 175 112 360 352 337 320 339 259 306 318 314 305 282 264 252 244 222 208 195 180 173
180 174 164 162 168 167 169 171 174 172 161 170 190 193 178 177 181 173 156 149 158 194 165 231 319 338 325 332 325 304 282 300 291 294 291 280 271 271 261 234 210 195 193
180 174 174 179 182 181 175 176 182 169 168 179 189 190 186 188 194 174 152 190 220 215 223 275 299 308 315 335 343 342 352 309 297 291 294 292 294 318 274 281 276 247 216
176 177 178 179 180 173 167 165 161 162 169 174 183 193 188 191 186 173 202 228 218 213 223 240 264 292 317 346 354 6 15 325 311 293 272 271 284 271 219 219 280 285 269
178 176 175 168 157 165 162 150 147 149 155 166 179 194 188 186 184 200 223 225 208 225 250 251 277 298 315 343 358 11 342 330 319 307 299 277 265 274 214 172 246 289 292
137 145 142 139 148 154 149 146 151 156 179 189 186 174 166 174 188 205 208 203 183 223 267 340 314 296 309 338 359 14 312 313 311 314 309 286 278 270 221 210 217 244 273
123 133 138 146 153 149 142 148 156 180 193 158 131 116 123 149 160 164 171 169 154 105 9 340 329 323 316 319 327 320 273 268 286 292 295 287 283 265 246 229 229 238 246
104 119 126 124 126 138 141 138 156 182 144 124 115 108 95 98 108 119 110 108 112 94 345 329 324 316 308 307 307 300 270 259 258 271 277 277 280 267 256 246 245 244 238
110 118 128 121 114 129 138 142 156 119 112 113 119 110 86 84 90 114 128 130 126 177 279 304 307 312 316 318 321 320 313 296 277 271 272 277 278 271 258 253 254 247 232
101 112 116 117 119 118 117 130 128 120 105 110 117 110 106 82 72 83 151 171 198 221 257 273 287 304 317 323 328 328 327 330 313 299 298 292 281 270 264 275 269 251 238
100 122 125 132 147 138 123 119 126 121 120 116 112 119 126 138 117 39 237 224 221 207 207 230 238 262 291 295 295 292 299 300 292 300 318 325 317 307 293 288 281 271 260
102 115 126 132 154 140 134 138 143 141 139 139 139 134 154 179 186 224 337 345 312 323 246 226 234 257 268 296 303 297 294 305 316 54 317 299 294 285 281 283 285 279 268
Height
1503 1504 1505 1506 1507 1508 1509 1509 1510 1510 1510 1511 1511 1512 1512 1513 1513 1513 1514 1514 1514 1513 1513 1513 1514 1514 1514 1515 1515 1515 1516 1516 1517 1517 1518 1519 1519 1520 1520 1521 1521 1521 1522
1502 1504 1505 1506 1507 1508 1508 1509 1510 1510 1511 1511 1512 1513 1513 1514 1514 1515 1515 1515 1515 1515 1515 1515 1515 1515 1516 1516 1516 1516 1517 1517 1518 1518 1518 1519 1521 1520 1520 1521 1521 1521 1522
1500 1502 1504 1505 1506 1507 1508 1509 1510 1511 1511 1512 1513 1513 1514 1515 1515 1515 1515 1516 1516 1516 1516 1516 1516 1516 1517 1516 1517 1517 1517 1517 1518 1519 1519 1519 1519 1520 1520 1520 1520 1521 1521
1498 1500 1502 1504 1505 1506 1508 1509 1510 1511 1512 1513 1513 1514 1514 1515 1515 1516 1516 1517 1517 1517 1517 1517 1517 1517 1517 1517 1517 1517 1517 1517 1518 1518 1519 1519 1519 1519 1519 1520 1520 1520 1520
1496 1498 1500 1502 1504 1506 1507 1509 1510 1511 1512 1513 1514 1514 1515 1515 1516 1516 1517 1517 1517 1517 1517 1517 1517 1516 1516 1516 1516 1517 1517 1517 1517 1517 1517 1517 1518 1518 1518 1517 1518 1518 1519
1494 1497 1499 1502 1504 1506 1507 1508 1510 1511 1512 1513 1514 1514 1515 1515 1516 1516 1516 1517 1517 1517 1517 1516 1516 1516 1516 1515 1515 1515 1515 1515 1515 1516 1516 1516 1516 1516 1516 1516 1516 1516 1517
1492 1495 1497 1500 1502 1504 1506 1508 1509 1510 1511 1512 1513 1514 1515 1515 1515 1516 1516 1516 1516 1516 1516 1516 1516 1515 1515 1514 1514 1514 1514 1514 1514 1514 1514 1514 1514 1514 1514 1514 1514 1514 1514
1490 1493 1495 1498 1501 1503 1505 1507 1508 1509 1511 1512 1513 1514 1514 1515 1515 1515 1516 1516 1516 1516 1516 1515 1515 1515 1514 1513 1513 1512 1512 1512 1512 1512 1513 1513 1512 1512 1513 1513 1513 1512 1513
1488 1491 1494 1497 1500 1502 1504 1506 1508 1509 1510 1511 1512 1513 1514 1514 1515 1515 1515 1516 1516 1516 1515 1515 1514 1514 1513 1513 1512 1511 1511 1511 1511 1511 1511 1511 1511 1511 1511 1511 1511 1511 1510
1487 1490 1493 1496 1499 1501 1504 1506 1507 1509 1510 1511 1512 1513 1513 1514 1514 1515 1515 1515 1515 1515 1514 1514 1514 1513 1512 1512 1511 1510 1510 1510 1509 1509 1509 1509 1509 1509 1509 1509 1509 1509 1509
1486 1489 1492 1495 1498 1501 1503 1505 1507 1508 1509 1511 1511 1512 1512 1513 1514 1514 1514 1514 1514 1514 1513 1513 1513 1512 1511 1510 1510 1509 1509 1508 1508 1508 1507 1507 1507 1507 1507 1507 1507 1507 1507
1485 1488 1491 1494 1497 1499 1502 1504 1506 1507 1508 1510 1511 1511 1511 1512 1512 1513 1513 1513 1513 1513 1513 1512 1511 1510 1510 1509 1508 1508 1507 1507 1506 1506 1506 1506 1505 1505 1505 1505 1505 1505 1505
1485 1488 1490 1493 1495 1498 1500 1502 1504 1506 1507 1509 1510 1510 1511 1511 1511 1511 1512 1512 1512 1512 1511 1511 1510 1509 1508 1508 1507 1507 1506 1505 1505 1504 1504 1504 1503 1503 1503 1503 1503 1503 1503
1485 1487 1489 1491 1493 1496 1499 1501 1503 1505 1506 1507 1508 1509 1509 1509 1510 1510 1510 1510 1510 1510 1510 1509 1508 1508 1507 1506 1506 1505 1504 1503 1503 1503 1502 1502 1501 1501 1501 1501 1501 1501 1501
1483 1486 1488 1490 1492 1495 1497 1500 1502 1504 1505 1506 1507 1507 1508 1508 1508 1509 1509 1509 1509 1508 1508 1507 1507 1506 1505 1504 1504 1503 1502 1501 1501 1500 1500 1500 1499 1499 1499 1498 1498 1498 1498
1481 1484 1486 1489 1491 1494 1496 1498 1500 1502 1503 1505 1505 1506 1506 1507 1507 1507 1507 1507 1506 1506 1506 1505 1505 1504 1503 1503 1502 1501 1500 1499 1499 1498 1497 1497 1497 1496 1496 1496 1496 1496 1495
1480 1482 1485 1487 1490 1492 1494 1497 1499 1500 1502 1503 1504 1504 1504 1505 1505 1505 1505 1505 1504 1504 1503 1503 1503 1502 1501 1500 1499 1498 1497 1497 1496 1495 1495 1494 1494 1494 1493 1493 1493 1493 1493
1479 1481 1484 1486 1489 1491 1493 1495 1497 1498 1499 1500 1501 1502 1502 1502 1502 1502 1502 1502 1502 1501 1501 1500 1499 1499 1499 1498 1497 1496 1495 1494 1494 1493 1492 1491 1491 1491 1491 1490 1490 1490 1490
1479 1481 1483 1485 1487 1489 1491 1493 1494 1496 1497 1498 1499 1500 1500 1500 1500 1500 1499 1499 1499 1499 1498 1497 1497 1496 1496 1495 1494 1493 1492 1491 1490 1490 1489 1489 1488 1488 1488 1488 1487 1487 1488
1478 1480 1482 1484 1485 1487 1489 1491 1492 1494 1495 1496 1496 1497 1497 1498 1497 1497 1497 1497 1497 1496 1495 1494 1494 1493 1493 1492 1491 1491 1490 1488 1487 1487 1486 1486 1485 1485 1485 1484 1484 1484 1484
1477 1479 1480 1481 1483 1485 1487 1489 1491 1492 1493 1493 1494 1494 1495 1495 1495 1494 1494 1494 1494 1493 1493 1492 1491 1491 1490 1489 1489 1488 1487 1485 1484 1483 1482 1482 1482 1482 1481 1481 1481 1480 1481
1476 1477 1478 1480 1481 1483 1485 1486 1488 1490 1491 1491 1492 1492 1492 1492 1492 1492 1492 1492 1492 1491 1490 1489 1489 1488 1487 1487 1486 1485 1484 1483 1481 1480 1479 1479 1478 1478 1478 1477 1477 1477 1477
1475 1476 1477 1479 1481 1482 1483 1485 1486 1488 1489 1490 1490 1490 1490 1490 1490 1489 1489 1489 1489 1488 1487 1486 1486 1485 1484 1484 1483 1482 1481 1479 1478 1477 1476 1475 1475 1474 1474 1474 1474 1474 1473
1475 1476 1477 1478 1480 1481 1483 1484 1485 1486 1487 1487 1488 1489 1488 1488 1488 1487 1487 1487 1486 1485 1484 1484 1483 1482 1481 1480 1479 1478 1477 1476 1475 1474 1473 1472 1472 1471 1470 1470 1470 1470 1470
1475 1476 1477 1478 1479 1480 1481 1482 1483 1484 1485 1486 1486 1487 1487 1486 1486 1486 1486 1485 1484 1483 1482 1481 1480 1479 1478 1478 1477 1475 1474 1473 1472 1471 1470 1469 1468 1467 1467 1466 1466 1466 1466
1475 1476 1476 1477 1478 1478 1479 1480 1481 1482 1482 1483 1484 1484 1484 1485 1484 1484 1483 1482 1482 1481 1480 1479 1479 1477 1477 1475 1474 1473 1472 1471 1470 1468 1466 1465 1464 1464 1463 1463 1462 1462 1461